This is the latest recevied weather packets stored in our database for station/object WE3WEE. If no packets are shown the sender has not sent any weather packets the latest 10 day(s).
| Time | Temp. | Humidity | Pressure | Rain* | Wind** | Luminosity | Snow |
|---|---|---|---|---|---|---|---|
| 1777853908 | 10.56° C | 52% | 1011.7 hPa | 0 mm | - | - | - |
| 1777853605 | 10.56° C | 52% | 1011.7 hPa | 0 mm | - | - | - |
| 1777853302 | 11.11° C | 51% | 1011.7 hPa | 0 mm | - | - | - |
| 1777852999 | 11.11° C | 51% | 1011.7 hPa | 0 mm | - | - | - |
| 1777852696 | 11.67° C | 49% | 1011.7 hPa | 0 mm | - | - | - |
| 1777852394 | 12.22° C | 48% | 1011.7 hPa | 0 mm | - | - | - |
| 1777852091 | 12.22° C | 47% | 1011.7 hPa | 0 mm | - | - | - |
| 1777851789 | 12.22° C | 44% | 1011.7 hPa | 0 mm | - | - | - |
| 1777851486 | 12.78° C | 46% | 1011.7 hPa | 0 mm | - | - | - |
| 1777851182 | 12.78° C | 45% | 1011.7 hPa | 0 mm | - | - | - |
| 1777850878 | 12.78° C | 43% | 1011.7 hPa | 0 mm | - | - | - |
| 1777850576 | 13.33° C | 46% | 1011.7 hPa | 0 mm | - | - | - |
| 1777850273 | 13.33° C | 42% | 1011.7 hPa | 0 mm | - | - | - |
| 1777849965 | 13.33° C | 42% | 1011.7 hPa | 0 mm | - | - | - |
| 1777849661 | 13.33° C | 41% | 1011.7 hPa | 0 mm | - | - | - |
| 1777849358 | 13.33° C | 43% | 1011.7 hPa | 0 mm | - | - | - |
| 1777849056 | 13.89° C | 44% | 1011.7 hPa | 0 mm | - | - | - |
| 1777848756 | 13.89° C | 41% | 1011.7 hPa | 0 mm | - | - | - |
| 1777848453 | 13.33° C | 40% | 1011.7 hPa | 0 mm | - | - | - |
| 1777848151 | 13.33° C | 43% | 1011.7 hPa | 0 mm | - | - | - |
| 1777847848 | 13.33° C | 42% | 1011.7 hPa | 0 mm | - | - | - |
| 1777847546 | 13.33° C | 42% | 1011.7 hPa | 0 mm | - | - | - |
| 1777847242 | 13.33° C | 42% | 1011.7 hPa | 0 mm | - | - | - |
| 1777846939 | 13.89° C | 44% | 1011.7 hPa | 0 mm | - | - | - |
| 1777846638 | 13.89° C | 45% | 1011.7 hPa | 0 mm | - | - | - |
* Rain latest hour (hover to see other rain measurements)
** Current wind speed in m/s (hover to see current wind gust speed)